Regional Weather Roundup
Issued by NWS Grand Forks, ND

Home | Current Version | Previous Version | Graphics & Text | Print | Product List | Glossary On
Versions: 1 2 3 4 5 6 7 8 9 10 11 12 13 14 15 16 17 18 19 20 21 22 23 24 25 26 27 28 29 30 31 32 33 34 35 36 37 38 39 40 41 42 43 44 45 46 47 48 49 50
000
ASUS43 KFGF 182210
RWRFGF
PRAIRIE TO PINES  WEATHER ROUNDUP
NATIONAL WEATHER SERVICE EASTERN NORTH DAKOTA/GRAND FORKS ND
500 PM CDT WED OCT 18 2017

 **SATELLITE DATA USED TO AUGMENT SKY COVER AT AUTOMATED STATIONS**
 *****  WEATHER ACROSS EASTERN NORTH DAKOTA  *****

CITY           SKY/WX    TMP DP  RH WIND       PRES   REMARKS
GRAND FORKS    FAIR      61  14  16 W23G37    29.82R
GRAND FRKS AFB FAIR      59  13  16 W21G37    29.83R
DEVILS LAKE    FAIR      56  18  22 W29G36    29.84R
FARGO          FAIR      59  14  17 W20G30    29.89R
WAHPETON ARPT  NOT AVBL
$$

 ***** WEATHER ACROSS CENTRAL AND WESTERN NORTH DAKOTA  *****

CITY           SKY/WX    TMP DP  RH WIND       PRES   REMARKS
BISMARCK       FAIR      61  22  22 W17G24    29.96F
MINOT          FAIR      57  18  21 W25G38    29.88S
JAMESTOWN      FAIR      58  19  22 W23G31    29.92R
MINOT AFB      FAIR      56  17  22 W26G39    29.86R
GARRISON         N/A     56  21  25 W18G28    29.91F
WILLISTON      FAIR      57  22  25 W13       29.91F
DICKINSON      FAIR      58  23  26 W18G24    29.95F
HETTINGER      FAIR      61  21  21 W12       29.99F
$$

 *****  OTHER AIRPORT OBSERVATIONS IN OUR AREA  *****

CITY           SKY/WX    TMP DP  RH WIND       PRES   REMARKS
WALHALLA       FAIR     N/A N/A N/A W24G39    29.74R
GRAFTON AIRPOR FAIR      57  18  21 W29G40    29.80R
VALLEY CITY AR FAIR      57  18  21 W22G30    29.93R
CANDO          FAIR      55  10  16 W31G43    29.83S
CAVALIER APRT  FAIR      59  10  14 W28G40    29.74S
GWINNER        CLEAR     59  19  21 W14G22    29.95S
SHEYENNE NWR     N/A     61  16  17 W17       29.95S
ROLLA          FAIR      54   9  16 W30G45    29.78R
 ***** THE ABOVE OBSERVATIONS ARE NON NWS ARE NOT QUALITY
       CONTROLLED AND MAY MIS-REPORT RAIN FOR SNOW...
$$

  *****  WEATHER ACROSS NORTHERN MINNESOTA  *****

CITY           SKY/WX    TMP DP  RH WIND       PRES   REMARKS
FLAG ISLAND    FAIR      55  16  21 W26G40    29.59S
WARROAD        FAIR      57  19  23 W25G38    29.68R
ROSEAU         FAIR      59   7  12 W28G37    29.69R
HALLOCK        FAIR      61  -2   8 W32G44    29.72S
THF RVR FALLS  FAIR      57  14  18 W29G41    29.80R
BAUDETTE       FAIR      58   9  14 W24G46    29.67R
WASKISH        FAIR      55  30  38 W21G30    29.74R
CROOKSTON      FAIR      59  14  17 W29G36    29.82S
STEPHEN NDAWN    N/A     57  12  17 W22         N/A
GREENBUSH NDAW   N/A     57  12  17 W26         N/A
$$
  *****  WEATHER ACROSS CENTRAL AND WEST MINNESOTA  *****

CITY           SKY/WX    TMP DP  RH WIND       PRES   REMARKS
FOSSTON        FAIR      57  10  15 W28G37    29.83R
BEMIDJI        FAIR      56  16  20 W24G32    29.80R
PARK RAPIDS    LGT RAIN  59  17  19 W16G33    29.84R
ELBOW LAKE     FAIR      57  23  26 NW15G25   29.93R
WADENA         FAIR      59  19  21 W15G28    29.87R
DETROIT LAKES  FAIR      57  14  18 W20G26    29.89R
MOORHEAD       FAIR      59  10  14 W17G26    29.90S
FERGUS FALLS   FAIR      57  23  26 W21       29.92R
MORRIS MN      FAIR      59  27  29 W17       29.94S
STAPLES        FAIR      57  18  21 W16G23    29.86S
$$
  *****  WEATHER ELSEWHERE ACROSS MINNESOTA  *****

CITY           SKY/WX    TMP DP  RH WIND       PRES   REMARKS
DULUTH         FAIR      62  15  16 W21G30    29.74R
INTRNTL FALLS  FAIR      59  12  15 W16G32    29.66R
ELY            FAIR      57   9  14 W12G25    29.68R
CLOQUET        FAIR      64  12  13 W17G24    29.76R
WHEATON        FAIR      59  19  21 W12G17    29.97R
BRAINERD       FAIR      60  17  18 W17       29.85R
HIBBING        FAIR      58  17  20 W12G23    29.74R
ALEXANDRIA     FAIR      58  23  26 W17G25    29.93R
SAINT CLOUD    FAIR      63  17  17 W20G30    29.87R
MINNEAPOLIS    PTSUNNY   71  30  21 W20G28    29.87R
$$

  *****  WEATHER ACROSS SOUTH DAKOTA  *****

CITY           SKY/WX    TMP DP  RH WIND       PRES   REMARKS
SIOUX FALLS    PTSUNNY   70  37  29 N9        29.99R
BROOKINGS      FAIR      63  27  25 NW7       30.00R
WATERTOWN      FAIR      57  27  31 NW10      30.00R
HURON          FAIR      64  25  22 N8        30.02R
SISSETON         N/A     62  25  24 W16G24    29.95S
ABERDEEN       FAIR      60  25  26 W15       30.00S
MITCHELL       FAIR      67  20  16 N10       30.03R
PIERRE         FAIR      64  20  18 N6        30.02F
MOBRIDGE       FAIR      65  23  20 W10       29.97F
RAPID CITY     FAIR      65  26  23 S16       30.03F
$$

  *****  SOME WEATHER IN NEARBY STATES *****

CITY           SKY/WX    TMP DP  RH WIND       PRES   REMARKS
GLASGOW MT     FAIR      59  24  26 SW10      29.88F
GREAT FALLS MT FAIR      64  30  27 SW25G38   29.84F
CHEYENNE WY    FAIR      73   9   8 W15       30.15S
SCOTTSBLUFF NE FAIR      72  25  17 SE8       30.08S
OMAHA NE       FAIR      77  48  35 CALM      29.93R
DES MOINES IA  FAIR      74  48  39 SW12      29.93R
DAVENPORT IA   FAIR      71  44  37 S9        30.00S
CHICAGO IL     FAIR      70  42  36 S20       30.01F
EAU CLAIRE WI  FAIR      69  44  40 SW13      29.81F
LA CROSSE WI   FAIR      76  47  35 W12G20    29.85S
$$

  *****  SOME NATIONAL WEATHER *****

CITY           SKY/WX    TMP DP  RH WIND       PRES   REMARKS
LA GUARDIA NY  FAIR      68  48  48 S10       30.25R
RALEIGH NC     FAIR      65  39  38 E6        30.32S
ATLANTA GA     FAIR      69  41  36 E9        30.26S
NEW ORLEANS LA FAIR      77  60  55 E8        30.13F
OKLAHOMA CITY  PTSUNNY   78  42  27 S16G24    30.02R
ALBUQUERQUE NM CLOUDY    77  17  10 CALM      30.15F
SALT LAKE CITY FAIR      71  29  21 NW7       30.13F
LOS ANGELES CA FAIR      76  58  53 W15       29.91F
BOISE ID       FAIR      75  28  17 S10       29.99F
SEATTLE WA     LGT RAIN  60  55  83 S20G31    29.66F
$$

*** WEATHER ACROSS MANITOBA...SASKATCHEWAN AND ONTARIO ***
                ***ONTARIO***

CITY           SKY/WX    TMP DP  RH WIND       PRES   REMARKS
GERALDTON      MOCLDY    59  46  63 SW20G26   29.43R
THUNDER BAY    MOCLDY    68  30  24 W22G32    29.51R
SIOUX LOOKOUT  PTCLDY    55  21  26 W16G32    29.46R
TORONTO        CLEAR     66  41  39 SW15      30.12F
BIG TROUT LK   LGT RAIN  46  36  66 SW20G31   29.12R
PICKLE LAKE    MOCLDY    52  30  43 W18G35    29.32R
DRYDEN         SUNNY     55  14  19 W33G43    29.50R
KENORA         SUNNY     55   9  15 W29G41    29.54R
$$
                *** MANITOBA***

CITY           SKY/WX    TMP DP  RH WIND       PRES   REMARKS
BRANDON        SUNNY     55   7  14 W39G48    29.68R
DAUPHIN        SUNNY     54  19  26 W43G59    29.50R
ISLAND LAKE    NOT AVBL
PILOT MOUND      N/A     54   7  15 W20G39      N/A
THE PAS        DRIZZLE   39  34  81 W26G38    29.35R
THOMPSON       FLURRIES  34  32  93 NW13      29.02R WCI  25
WINNIPEG       SUNNY     57  10  15 W35G45    29.60R
LYNN LAKE      LGT SNOW  32  32 100 N12G17    29.22R WCI  23
CHURCHILL      LGT SNOW  32  32 100 E35G47    29.16R VSB 5/8 WCI  17
GILLAM         CLOUDY    37  36  93 NE10      28.82R
$$
                ***SASKATCHEWAN***

CITY           SKY/WX    TMP DP  RH WIND       PRES   REMARKS
ESTEVAN        MOSUNNY   54  16  22 W26G33    29.85R
KINDERSLEY     PTSUNNY   50  18  27 SW12      29.77F
LLOYDMINSTER   PTSUNNY   45  21  39 W8        29.70F
PRINCE ALBERT  NOT AVBL
REGINA         MOSUNNY   52  12  20 W26G35    29.81R
YORKTON        SUNNY     52  12  20 W35G48    29.63R
N. BATTLEFORD  SUNNY     48  16  27 W13G21    29.73S
LA RONGE       LGT RAIN  37  32  81 W23G39    29.54R
SASKATOON      MOSUNNY   50  10  20 W21G28    29.73S
SWIFT CURRENT  SUNNY     50  16  25 W9        29.81F
$$
NOTE: THESE ARE AUTOMATED STATIONS WITH LIMITED QUALITY CONTROL
      "FAIR" INDICATES FEW OR NO CLOUDS BELOW 12,000 FEET WITH NO
      SIGNIFICANT WEATHER AND/OR OBSTRUCTIONS TO VISIBILITY.
      SKY/WX - SKY CONDITION AND SIGNIFICANT WEATHER.
      TMP - AIR TEMPERATURE.    DP   - DEWPOINT TEMPERATURE.
      RH  - RELATIVE HUMIDITY.  PRES - PRESSURE.
      HX  - HEAT INDEX.         WCI  - WIND CHILL INDEX.
$



USA.gov is the U.S. government's official web portal to all federal, state and local government web resources and services.